EW5024 Weather Reports


Display with metric or nautical units.
time (UTC)temp
F
wind
direction
speed
MPH
gust
MPH
rain 1hr
in
rain 24hr
in
rain mn
in
humidity
%
barometer
mb
20260505153101 60 157 3.0 8.0 0.00 0.03 0.03 76 1012.9
20260505151548 60 119 4.0 9.0 0.00 0.03 0.03 76 1013.0
20260505124537 61 156 4.0 10.0 0.01 0.03 0.03 77 1013.9
20260505123048 61 170 4.0 8.0 0.01 0.03 0.03 77 1014.0
20260505121537 60 184 2.0 7.0 0.00 0.02 0.02 78 1014.0
20260505120043 60 282 1.0 4.0 0.00 0.02 0.02 79 1014.0
20260505114534 59 164 3.0 7.0 0.01 0.02 0.02 80 1014.2
20260505113033 59 232 1.0 4.0 0.01 0.02 0.02 81 1014.4
20260505111535 58 161 4.0 6.0 0.01 0.02 0.02 80 1014.4
20260505101533 59 162 3.0 5.0 0.01 0.02 0.02 77 1014.4
20260505100032 59 234 1.0 5.0 0.01 0.01 0.01 77 1014.3
20260505094528 59 139 3.0 4.0 0.01 0.01 0.01 75 1014.2
20260505093027 58 196 3.0 5.0 0.01 0.01 0.01 75 1014.3
20260505091530 58 144 3.0 8.0 0.01 0.01 0.01 75 1014.4
20260505090026 59 223 5.0 11.0 0.00 0.00 0.00 73 1014.4
20260505084541 60 150 3.0 11.0 0.00 0.00 0.00 69 1014.1
20260505083042 60 208 1.0 4.0 0.00 0.00 0.00 68 1014.0
20260505081526 61 178 2.0 4.0 0.00 0.00 0.00 65 1013.9
20260505080034 61 69 0.0 2.0 0.00 0.00 0.00 62 1013.6
20260505074521 60 309 0.0 3.0 0.00 0.00 0.00 63 1013.6
20260505073034 60 308 2.0 3.0 0.00 0.00 0.00 64 1013.6
20260505071521 59 317 2.0 5.0 0.00 0.00 0.00 65 1013.7
20260505070019 59 285 1.0 4.0 0.00 0.00 0.00 65 1013.8
20260505064519 58 298 2.0 5.0 0.00 0.00 0.00 66 1013.8
20260505063018 57 307 3.0 8.0 0.00 0.00 0.00 68 1013.8
20260505061526 57 329 2.0 5.0 0.00 0.00 0.00 68 1013.8
20260505060035 57 282 1.0 5.0 0.00 0.00 0.00 67 1014.0
20260505054518 57 277 1.0 2.0 0.00 0.00 0.00 68 1013.9
20260505053015 56 279 1.0 3.0 0.00 0.00 0.00 70 1013.9
20260505051514 55 311 0.0 3.0 0.00 0.00 0.00 73 1013.8
20260505041509 53 318 0.0 3.0 0.00 0.00 0.00 76 1014.0
20260505040008 54 317 0.0 4.0 0.00 0.00 0.00 75 1013.9
20260505034506 54 94 0.0 0.0 0.00 0.00 0.00 74 1014.1
20260505033004 54 94 0.0 0.0 0.00 0.00 0.00 74 1014.2
20260505031503 55 95 0.0 2.0 0.00 0.00 0.00 73 1014.3
20260505030003 55 80 1.0 5.0 0.00 0.00 0.00 73 1014.4
20260505024601 56 292 2.0 4.0 0.00 0.00 0.00 71 1014.2
20260505023059 56 310 1.0 2.0 0.00 0.00 0.00 72 1014.2
20260505021556 56 309 2.0 4.0 0.00 0.00 0.00 70 1014.4
20260505020051 58 331 2.0 4.0 0.00 0.00 0.00 66 1014.6
20260505014603 60 213 2.0 5.0 0.00 0.00 0.00 64 1014.6
20260505013051 60 234 1.0 4.0 0.00 0.00 0.00 61 1014.7
20260505011546 60 121 0.0 4.0 0.00 0.00 0.00 62 1014.7
20260505010053 60 111 3.0 7.0 0.00 0.00 0.00 63 1014.8
20260505004548 60 192 2.0 3.0 0.00 0.00 0.00 63 1014.9
20260505003053 61 98 0.0 3.0 0.00 0.00 0.00 61 1015.0
20260505001535 62 146 1.0 3.0 0.00 0.00 0.00 60 1015.1
20260505000035 63 135 1.0 5.0 0.00 0.00 0.00 59 1015.1
20260504234529 63 205 4.0 7.0 0.00 0.00 0.00 58 1015.2
20260504233034 63 136 3.0 5.0 0.00 0.00 0.00 57 1015.4
20260504231527 63 155 3.0 5.0 0.00 0.00 0.00 56 1015.4
20260504230023 64 184 2.0 4.0 0.00 0.00 0.00 54 1015.5
20260504224521 64 143 1.0 5.0 0.00 0.00 0.00 53 1015.6
20260504223021 64 159 2.0 5.0 0.00 0.00 0.00 53 1015.6
20260504221521 64 147 4.0 7.0 0.00 0.00 0.00 52 1015.7
20260504220014 65 149 5.0 12.0 0.00 0.00 0.00 51 1015.6
20260504214517 65 119 6.0 12.0 0.00 0.00 0.00 50 1015.6
20260504213022 65 132 7.0 11.0 0.00 0.00 0.00 49 1015.6
20260504211528 66 123 6.0 12.0 0.00 0.00 0.00 48 1015.7
20260504210013 67 134 6.0 11.0 0.00 0.00 0.00 46 1015.7
20260504204515 67 142 7.0 13.0 0.00 0.00 0.00 44 1015.6
20260504203012 68 126 8.0 15.0 0.00 0.00 0.00 43 1015.5
20260504201510 69 132 9.0 16.0 0.00 0.00 0.00 42 1015.4
20260504200009 69 175 7.0 13.0 0.00 0.00 0.00 40 1015.4
20260504194509 70 141 7.0 15.0 0.00 0.00 0.00 38 1015.3
20260504193008 70 134 8.0 16.0 0.00 0.00 0.00 38 1015.1
20260504191509 71 225 13.0 26.0 0.00 0.00 0.00 38 1014.9
20260504190007 71 159 11.0 23.0 0.00 0.00 0.00 38 1014.7
20260504184510 71 157 12.0 20.0 0.00 0.00 0.00 38 1014.6
20260504183009 71 186 13.0 26.0 0.00 0.00 0.00 38 1014.6
20260504181506 71 200 9.0 17.0 0.00 0.00 0.00 38 1014.5
20260504180005 72 178 13.0 19.0 0.00 0.00 0.00 38 1014.3
20260504174504 72 190 13.0 27.0 0.00 0.00 0.00 37 1014.2
20260504173002 72 186 17.0 28.0 0.00 0.00 0.00 36 1014.0
20260504171502 72 208 14.0 29.0 0.00 0.00 0.00 36 1014.0